NOAA 16 DEB

Satellite information

Favourite Embed

Satellite Type and Status

DEBRISIN ORBIT

Key statistics

Satellite NOAA 16 DEB at a glance.

Uptime

9171

Days in orbit

Revolutions

≈ 14.2

Per day

Orbit

SSO

Sun Synchronous Orbit

Inclination

98.6

Latest

Satellite identification and parameters

Extended collection of information and parameters for NOAA 16 DEB.

Object identification

Identified? True

Debris? True

Object name: NOAA 16 DEB

International designator: 2000-055Y

Object number (NORAD): 41065

Object ID (CCSDS): 41065

Country: UNITED STATES OF AMERICA (US)

Current information (Y/N): Y

RCS size: SMALL

Orbital parameters

Period: 101.343 minutes

Inclination: 98.6494 deg

SMA: 7200.387 km

Apoapsis: 830.319 km

Periapsis: 814.185 km

RAAN: 355.1179 deg

Eccentricy: 0.0011204

Argument of periapsis: 44.347 deg

Mean anomaly: 315.8603 deg

Mean motion: 14.20917959 rev/day

Mean motion (dot): 0.0000324 rev/day2

B* drag term: 0.0015157234 1/REarth

Two-line elements (TLE)

Creation date: Oct. 31, 2025, 3 a.m.

Reference frame: TEME

Reference center: EARTH

Epoch: Oct. 30, 2025, 8:55 a.m. UTC

TLE line 0: 0 NOAA 16 DEB

TLE line 1: 1 41065U 00055Y 25303.37194630 .00003240 00000-0 15157-2 0 9992

TLE line 2: 2 41065 98.6494 355.1179 0011204 44.3470 315.8603 14.20917959512022

Live tracking on map

Real-time ground track for satellite NOAA 16 DEB.

In-orbit conjunctions

A list of the most updated potential collisions computed for object NOAA 16 DEB.

Target Orbit TCA Probability of collision Miss distance Type
COSMOS 2251 DEB LEO 2025-10-20 01:07:58 0.0001958294 150.0 (m) DEBRIS
CZ-6A DEB SSO 2025-08-30 18:04:09 0.0001039174 252.0 (m) DEBRIS
CZ-6A DEB LEO 2025-04-05 01:47:52 0.0001130259 188.0 (m) DEBRIS
COSMOS 2251 DEB LEO 2025-03-17 01:50:39 0.0002085703 119.0 (m) DEBRIS
CZ-6A DEB LEO 2024-09-17 11:03:36 0.0008575429 438.0 (m) DEBRIS

Associated space launch

The NOAA K, L and M POES satellites begin the fifth generation of improved environmental monitoring in support of NOAA missions. The instrument payload has significant improvements and additions/deletions. The instrument changes have effected the spacecraft subsystems and data formats.

NOAA 16 DEB was lifted into orbit during the mission ‘Titan II SLV | NOAA 16’, on board a Titan II SLV space rocket.

The launch took place on Sept. 21, 2000, 10:22 a.m. from Space Launch Complex 4W.

For more information about the launch, click the button.

Launch to space Titan II SLV | NOAA 16
Titan II SLV | NOAA 16

Agency: N/A

Status: Launch Successful

Launch date: Sept. 21, 2000, 10:22 a.m. UTC

Rocket: Titan II SLV

Launch pad: Space Launch Complex 4W

Location: Vandenberg SFB, CA, USA

...

Latest news about this satellite

There are no fresh news available about this satellite. Check back as we update our databases every day.


Newsletter sign-up

Weekly statistics, charts and insights to help you stay on top of the space industry.